User: anonymous   Login
Location: Boussy-Saint-Antoine
(48.6830°N, 2.5330°E)
Time: 06:48:56
(UTC+02:00)
Language:

ITUPSAT 1 - Orbit

View from above orbital plane
View from above orbital plane
View from above satellite
View from above satellite

Ground track
Ground track

The orbit data is extracted from the following two-line orbital elements,

1 35935U 09051E   19228.91413209 +.00000044 +00000-0 +21326-4 0  9997
2 35935 098.6070 038.6563 0008080 003.5336 356.5916 14.55545372525226
Epoch (UTC): 16 August 2019 21:56:21
Eccentricity: 0.0008080
inclination: 98.6070°
perigee height: 702 km
apogee height: 713 km
right ascension of ascending node: 38.6563°
argument of perigee: 3.5336°
revolutions per day: 14.55545372
mean anomaly at epoch: 356.5916°
orbit number at epoch: 52522

The dashed part of the orbit path shows where the satellite is in the earth's shadow,  

DLR